Beaumont, TX

11:22 PM CDT on July 25, 2017 (GMT -0500)
Southeast Texas Regional

Weather History for KBPT - November, 2013

Change the Weather History Date:

Thursday, November 21, 2013

  Actual Average Record
Temperature  
Mean Temperature 71 °F 60 °F  
Max Temperature 77 °F 70 °F 85 °F (1909)
Min Temperature 65 °F 50 °F 30 °F (1937)
Degree Days  
Heating Degree Days 0 6  
Month to date heating degree days 77 91  
Since 1 July heating degree days 86 125  
Cooling Degree Days 6 2  
Month to date cooling degree days 50 54  
Year to date cooling degree days 2995 2845  
Growing Degree Days 20 (Base 50)    
Moisture  
Dew Point 67 °F    
Average Humidity 87    
Maximum Humidity 100    
Minimum Humidity 74    
Precipitation  
Precipitation 0.00 in 0.13 in 6.87 in (1902)
Month to date precipitation 0.39 3.08  
Year to date precipitation 51.52 53.86  
Snow  
Snow 0.00 in 0.00 in 0.00 in ()
Month to date snowfall 0.0 0.0  
Since 1 July snowfall 0.0 0.0  
Since 1 September snowfall 0.0 0.0  
Snow Depth 0.00 in    
Sea Level Pressure  
Sea Level Pressure 30.06 in    
Wind  
Wind Speed 11 mph (ESE)    
Max Wind Speed 18 mph    
Max Gust Speed 26 mph    
Visibility 7 miles    
Events Fog    
T = Trace of Precipitation, MM = Missing Value Source: NWS Daily Summary

Daily Weather History Graph

Daily Weather History Graph

Search for Another Location

Airport or City:

Trip Planner

Search our weather history database for the weather conditions in past years. The results will help you decide how hot, cold, wet, or windy it might be!

Date:

Astronomy

Nov. 21, 2013 Rise Set
Actual Time 6:46 AM CST 5:17 PM CST
Civil Twilight 6:20 AM CST 5:43 PM CST
Nautical Twilight 5:51 AM CST 6:12 PM CST
Astronomical Twilight 5:22 AM CST 6:40 PM CST
Moon 8:52 PM CST (11/21) 9:54 AM CST (11/21)
Length of Visible Light 11h 22m
Length of Day
10h 31m
Waning Gibbous, 85% of the Moon is Illuminated
Nov 21
Waning Gibbous
Nov 25
Last Quarter
Dec 2
New
Dec 9
First Quarter
Dec 17
Full

Hourly Weather History & Observations

Time (CST) Temp. Dew Point Humidity Pressure Visibility Wind Dir Wind Speed Gust Speed Precip Events Conditions
12:53 AM 66.0 °F 62.1 °F 87% 30.01 in 10.0 mi ESE 8.1 mph - N/A   Mostly Cloudy
1:10 AM 64.4 °F 62.6 °F 94% 30.01 in 10.0 mi ESE 9.2 mph - N/A   Scattered Clouds
1:21 AM 64.4 °F 62.6 °F 94% 30.01 in 10.0 mi ESE 10.4 mph - N/A   Scattered Clouds
1:32 AM 64.4 °F 62.6 °F 94% 30.02 in 10.0 mi ESE 11.5 mph - N/A   Mostly Cloudy
1:53 AM 66.0 °F 63.0 °F 90% 30.02 in 10.0 mi East 9.2 mph - N/A   Overcast
2:46 AM 66.2 °F 64.4 °F 94% 30.02 in 9.0 mi ESE 11.5 mph - N/A   Overcast
2:53 AM 66.0 °F 64.0 °F 93% 30.02 in 9.0 mi ESE 10.4 mph - N/A   Overcast
3:13 AM 66.2 °F 64.4 °F 94% 30.02 in 9.0 mi East 11.5 mph - N/A   Overcast
3:53 AM 66.0 °F 64.0 °F 93% 30.02 in 8.0 mi East 9.2 mph - N/A   Overcast
4:53 AM 66.0 °F 64.0 °F 93% 30.03 in 8.0 mi East 8.1 mph - N/A   Overcast
5:53 AM 66.0 °F 64.0 °F 93% 30.04 in 6.0 mi East 11.5 mph - N/A   Overcast
6:53 AM 66.0 °F 63.0 °F 90% 30.05 in 7.0 mi East 10.4 mph - N/A   Overcast
7:51 AM 66.2 °F 62.6 °F 88% 30.07 in 8.0 mi East 9.2 mph - N/A   Overcast
7:53 AM 66.0 °F 63.0 °F 90% 30.06 in 8.0 mi East 8.1 mph - N/A   Overcast
8:53 AM 70.0 °F 64.9 °F 84% 30.08 in 10.0 mi East 8.1 mph - N/A   Mostly Cloudy
9:12 AM 69.8 °F 64.4 °F 83% 30.08 in 10.0 mi East 10.4 mph - N/A   Mostly Cloudy
9:53 AM 73.0 °F 66.9 °F 81% 30.09 in 10.0 mi ESE 11.5 mph - N/A   Scattered Clouds
10:46 AM 75.2 °F 68.0 °F 78% 30.09 in 10.0 mi ESE 15.0 mph - N/A   Mostly Cloudy
10:53 AM 75.9 °F 68.0 °F 76% 30.09 in 10.0 mi SE 13.8 mph 23.0 mph N/A   Scattered Clouds
11:13 AM 75.2 °F 66.2 °F 73% 30.09 in 10.0 mi ESE 16.1 mph - N/A   Mostly Cloudy
11:53 AM 77.0 °F 68.0 °F 74% 30.07 in 10.0 mi ESE 13.8 mph - N/A   Mostly Cloudy
12:05 PM 75.2 °F 68.0 °F 78% 30.07 in 10.0 mi ESE 13.8 mph - N/A   Mostly Cloudy
12:53 PM 75.9 °F 68.0 °F 76% 30.06 in 10.0 mi ESE 16.1 mph - N/A   Overcast
1:53 PM 75.0 °F 68.0 °F 79% 30.04 in 10.0 mi SE 13.8 mph - N/A   Overcast
2:53 PM 73.9 °F 69.1 °F 85% 30.04 in 10.0 mi ESE 11.5 mph - N/A   Overcast
3:53 PM 75.0 °F 69.1 °F 82% 30.04 in 10.0 mi SE 12.7 mph - N/A   Overcast
4:53 PM 73.0 °F 69.1 °F 87% 30.05 in 9.0 mi ESE 11.5 mph - N/A   Overcast
5:00 PM 73.4 °F 69.8 °F 88% 30.05 in 8.0 mi ESE 11.5 mph - N/A   Overcast
5:53 PM 71.1 °F 68.0 °F 90% 30.06 in 7.0 mi ESE 10.4 mph - N/A   Overcast
5:56 PM 71.6 °F 68.0 °F 88% 30.07 in 7.0 mi ESE 11.5 mph - N/A   Overcast
5:58 PM 71.6 °F 68.0 °F 88% 30.07 in 7.0 mi ESE 10.4 mph - N/A   Mostly Cloudy
6:45 PM 69.8 °F 68.0 °F 94% 30.08 in 1.0 mi ESE 10.4 mph - N/A   Overcast
6:53 PM 70.0 °F 68.0 °F 93% 30.08 in 1.0 mi ESE 9.2 mph - N/A   Overcast
7:06 PM 69.8 °F 68.0 °F 94% 30.08 in 0.2 mi ESE 8.1 mph - N/A Fog Fog
7:53 PM 69.1 °F 68.0 °F 96% 30.08 in 0.5 mi ESE 11.5 mph - N/A Fog Fog
8:53 PM 69.1 °F 68.0 °F 96% 30.08 in 0.5 mi ESE 13.8 mph - N/A Fog Fog
9:33 PM 69.8 °F 69.8 °F 100% 30.09 in 0.5 mi ESE 9.2 mph - N/A Fog Fog
9:53 PM 69.1 °F 69.1 °F 100% 30.11 in 0.5 mi ESE 6.9 mph - N/A Fog Fog
10:53 PM 70.0 °F 69.1 °F 97% 30.12 in 0.5 mi East 6.9 mph - N/A Fog Fog
11:46 PM 69.8 °F 69.8 °F 100% 30.11 in 0.2 mi East 8.1 mph - N/A Fog Fog
11:53 PM 70.0 °F 69.1 °F 97% 30.11 in 0.5 mi East 6.9 mph - N/A Fog Fog